Weather in Dorozhnyy

Russia / Sakha (Yakutia) Republic     61°26′46″N   114°21′33″E
temp.,
°C
wind,
m/s
gust,
m/s
humid.,
%
clouds,
%
prec.,
mm/h
press.,
hPa
HPBL,
m
21 january, thu
thu2100:00−42wnw2397100 0.1 1029184
03:00−42w2497100 0.1 1031182
06:00−43w239799 0.0 103299
09:00−41wsw2596100 0.1 1033288
12:00−40wsw2495100 0.1 1032300
15:00−38wsw2594100 0.1 1032342
18:00−38wsw1298100 0.1 103254
21:00−38sw1198100 0.1 103323
22 january, fri
fri2200:00−38ssw1198100 0.0 103219
03:00−38sse1198100 0.1 103119
06:00−39e0199100 0.0 103019
09:00−40ene1199100 0.1 103118
12:00−39ne129896 0.0 103137
15:00−38ne239785 0.0 1029148
18:00−42ne239858 0.0 103030
21:00−44ne239960 0.0 103051
23 january, sat
sat2300:00−46ne339860 0.0 103169
03:00−46ne359859 0.0 103198
06:00−47ne359861 0.0 1031109
09:00−48ne359861 0.0 1033105
12:00−46ne359661 0.0 1033147
15:00−43ne249561 0.0 1034196
18:00−47ne239758 0.0 103649
21:00−48ne229857 0.0 103818
24 january, sun
sun2400:00−48ne129855 0.0 104018
03:00−48ne119956 0.0 104218
06:00−48wsw009953 0.0 104418
09:00−48sw119854 0.0 104518
12:00−44sw119652 0.0 104649
15:00−41sw129253 0.0 1046166
18:00−44sw119651 0.0 104818
21:00−45sw119751 0.0 104918
25 january, mon
mon2500:00−45sw119771 0.0 104918
03:00−44sw119677 0.0 104918
06:00−44ssw119884 0.0 104918
09:00−45s019870 0.0 104818
12:00−41ne009653 0.0 104730
15:00−38ene119253 0.0 1046171
18:00−42ne129649 0.0 104618
21:00−43ne229746 0.0 104618